Location: Coffee Ditch
(40.9640°N, 122.7500°W)
Time: 16:47:28
(UTC+00:00)

Cosmos 1939 Rocket - Pass Details

Date: 08 September 2024
Orbit: 510 x 550 km, 97.5° (Epoch: 08 October)

Event Time Altitude Azimuth Distance (km) Brightness Sun altitude
Rises 12:52:27 0° 10° (N) 2,745 6.8 -10.6°
Reaches altitude 10° 12:54:35 10° 9° (N) 1,850 5.9 -10.2°
Maximum altitude 12:58:35 78° 284° (WNW) 577 2.8 -9.5°
Drops below altitude 10° 13:02:35 10° 198° (SSW) 1,840 5.2 -8.7°
Enters shadow 13:07:34 -9° 196° (SSW) 3,930 6.9 -7.8°
